Temp_Advection
nan nan nan nan nan nan nan nan nan nan nan nan nan nan nan nan nan nan nan nan nan nan
nan 0 0 -0 -0 -0 -0 0 0 0 0 -0 -0 -0 0 -0 0 0 0 0 0 nan
nan -0 -0 -0 -0 -0 -1 -1 -0 0 -0 -0 0 -0 -0 -0 -0 -0 -0 0 0 nan
nan -0 -0 -0 -0 -0 -0 -0 -1 -0 -0 -0 -0 -0 -0 -0 -0 -0 -0 -0 -0 nan
nan -0 0 0 -0 -0 -0 -0 -0 -1 -1 -0 -0 -0 -0 0 0 0 0 0 0 nan
nan -0 0 0 -0 0 -0 -0 -0 -1 -0 0 0 0 0 0 0 0 0 0 0 nan
nan 0 0 0 0 0 0 -0 -0 0 1 1 1 1 1 0 1 0 1 1 1 nan
nan 0 0 -0 0 0 -0 0 0 1 0 0 0 1 1 1 0 0 1 0 0 nan
nan -0 -0 0 -0 -0 -0 0 0 -0 -0 -0 1 1 0 0 0 0 0 0 0 nan
nan 0 -0 -0 -0 -0 -0 -0 0 -0 0 0 0 -0 0 0 0 0 0 0 0 nan
nan 0 0 0 0 0 0 0 0 0 0 0 0 0 0 0 0 0 0 0 0 nan
nan -0 -0 0 0 0 0 0 0 0 0 0 0 0 0 0 0 0 0 0 0 nan
nan -0 -0 0 0 0 0 0 0 0 0 0 0 0 0 0 0 0 1 1 1 nan
nan nan nan nan nan nan nan nan nan nan nan nan nan nan nan nan nan nan nan nan nan nan
Wind_Speed
13 14 21 31 33 27 25 24 23 23 24 28 27 26 25 25 25 25 24 25 27 25
17 18 21 23 27 31 22 20 17 14 19 22 23 24 23 23 23 23 23 21 19 19
16 15 16 17 22 25 32 25 17 12 10 15 19 21 21 21 20 21 22 21 20 19
11 16 14 9 24 23 24 25 38 21 14 10 14 16 17 18 19 19 21 22 21 21
8 12 13 16 21 24 22 23 27 31 19 18 16 13 12 14 15 17 20 20 20 21
7 9 14 18 18 22 19 19 20 25 27 21 20 18 16 19 20 21 19 19 19 18
9 11 11 13 16 23 23 19 17 19 20 19 19 17 17 19 20 19 19 20 20 19
6 8 9 10 11 18 25 22 19 18 17 17 19 20 22 21 20 20 21 20 21 21
9 8 9 9 9 11 14 25 25 19 17 17 20 22 24 22 26 25 23 21 22 20
10 10 6 8 9 10 11 13 15 17 17 15 14 14 15 17 15 14 13 13 15 20
11 11 10 9 8 7 9 9 11 11 11 11 11 10 10 10 14 16 16 15 14 14
9 8 6 6 7 7 6 8 9 10 10 10 9 9 11 13 14 15 14 15 14 14
7 6 5 8 8 6 5 6 6 8 8 7 8 8 9 9 9 10 12 12 11 10
3 3 6 8 7 7 6 7 7 7 9 8 8 8 7 7 8 7 7 7 7 9
Wind_Direction
183 176 187 176 173 170 181 185 189 186 190 197 197 201 203 204 207 210 211 215 221 223
171 164 160 170 188 178 173 177 176 187 199 196 198 205 206 209 207 212 219 221 221 223
176 173 185 184 182 185 197 182 175 176 202 204 200 201 204 205 207 210 215 220 220 222
201 192 193 211 192 189 196 199 204 198 213 209 207 205 207 207 208 209 212 217 223 227
215 229 228 224 194 196 198 196 200 208 207 223 224 227 224 223 216 217 219 217 217 220
178 195 213 213 197 187 192 196 193 200 208 213 214 212 221 224 222 216 217 220 219 218
194 191 194 195 204 196 193 197 198 194 195 197 201 207 211 214 214 211 215 217 213 214
203 164 170 174 188 200 196 193 198 191 192 202 206 211 209 211 214 216 216 220 229 241
149 144 145 152 161 177 191 204 209 216 224 235 244 225 217 225 244 242 239 236 245 246
130 130 136 151 159 168 170 176 186 197 212 212 210 220 216 210 220 239 236 238 228 238
105 110 116 123 130 151 168 175 180 183 188 193 196 203 211 216 215 222 235 231 244 232
89 93 109 133 134 139 145 145 154 159 169 179 190 196 204 214 226 230 238 228 221 212
78 90 123 125 123 141 159 169 156 165 168 177 194 191 202 208 214 215 211 204 209 207
103 135 122 116 128 137 152 156 160 165 150 148 143 152 163 168 166 181 186 186 192 202
Height
1424 1424 1432 1439 1445 1447 1455 1462 1468 1471 1476 1482 1484 1489 1493 1498 1502 1507 1513 1518 1521 1524
1427 1432 1435 1439 1444 1451 1455 1458 1464 1469 1475 1478 1480 1487 1492 1497 1499 1504 1511 1516 1518 1520
1429 1432 1437 1437 1442 1446 1452 1458 1461 1465 1471 1474 1481 1486 1490 1494 1497 1501 1507 1511 1514 1516
1428 1432 1433 1434 1438 1444 1451 1455 1461 1467 1471 1476 1480 1484 1488 1490 1494 1499 1503 1507 1509 1513
1427 1429 1429 1434 1438 1443 1448 1455 1459 1464 1468 1474 1479 1481 1484 1488 1492 1497 1501 1503 1505 1509
1424 1425 1430 1433 1436 1441 1447 1453 1459 1463 1464 1469 1474 1475 1480 1485 1489 1493 1497 1500 1502 1504
1428 1429 1431 1432 1436 1440 1446 1451 1456 1460 1464 1466 1472 1476 1479 1485 1488 1489 1493 1497 1499 1500
1429 1429 1430 1433 1436 1441 1446 1450 1455 1459 1462 1465 1469 1473 1478 1482 1485 1487 1490 1492 1495 1495
1429 1431 1433 1435 1437 1440 1443 1447 1453 1456 1460 1462 1465 1469 1473 1476 1482 1484 1484 1486 1489 1491
1432 1432 1434 1436 1439 1441 1444 1446 1449 1453 1458 1460 1462 1467 1468 1472 1476 1478 1480 1482 1485 1487
1433 1434 1435 1438 1440 1443 1444 1446 1449 1452 1455 1458 1460 1463 1467 1469 1472 1475 1477 1479 1481 1483
1436 1437 1440 1441 1443 1445 1447 1449 1451 1454 1456 1457 1459 1462 1465 1468 1471 1472 1474 1476 1479 1481
1437 1440 1443 1443 1443 1447 1450 1452 1451 1454 1456 1458 1457 1460 1462 1464 1468 1470 1474 1474 1477 1479
1441 1442 1443 1441 1446 1449 1452 1453 1453 1455 1457 1458 1459 1461 1462 1464 1466 1472 1474 1475 1476 1480